Date String (YYYY-MM-DD hh:mm:ss) UTC,Instrument flags,Ambient pressure (hPa),Sample flow (lpm),Bypass flow (lpm),Sample temperature (°C),Ambient temperature (°C),ASC tube jacket temperature (°C),LED temperature (°C),Box temperature (°C),Sample RH (%),Span deviation,Mass concentration (μg/m³),Mass concentration (μg/m³),Mass concentration (μg/m³)
DateTimeUTC,F1_M11,P_M11,Q1_M11,Q2_M11,T1_M11,T2_M11,T3_M11,T4_M11,T5_M11,U1_M11,ZSPAN_M11,X0_M11,X2_M11,X1_M11
2023-01-10 14:00:00,,0817.6,4.99,0.00,22.2,21.0,00.0,31.0,24.0,15.9,0000.0,0002.76,0001.33,0001.04
2023-01-10 14:01:00,,0817.7,5.00,0.00,22.2,21.1,00.0,31.0,24.0,15.9,0000.0,0002.68,0001.27,0001.02
2023-01-10 14:02:00,,0817.7,5.00,0.00,22.2,21.0,00.0,31.0,24.0,15.9,0000.0,0002.50,0001.23,0000.99
2023-01-10 14:03:00,,0817.6,5.00,0.00,22.2,21.0,00.0,31.0,24.0,15.9,0000.0,0001.85,0001.19,0000.96
2023-01-10 14:04:00,,0817.6,5.00,0.00,22.2,20.9,00.0,31.0,24.0,15.9,0000.0,0001.80,0001.15,0000.92
2023-01-10 14:05:00,,0817.6,4.99,0.00,22.2,20.9,00.0,31.0,23.9,15.8,0000.0,0001.72,0001.10,0000.88
2023-01-10 14:06:00,,0817.6,5.01,0.00,22.2,20.9,00.0,31.0,23.9,15.7,0000.0,0001.70,0001.08,0000.85
2023-01-10 14:07:00,,0817.6,5.00,0.00,22.2,21.0,00.0,31.0,23.9,15.8,0000.0,0001.57,0001.03,0000.82
2023-01-10 14:08:00,,0817.6,5.01,0.00,22.2,21.0,00.0,31.0,24.0,15.8,0000.0,0001.42,0000.98,0000.80
2023-01-10 14:09:00,,0817.5,4.99,0.00,22.2,21.0,00.0,31.0,24.0,15.8,0000.0,0001.45,0000.99,0000.78
2023-01-10 14:10:00,,0817.5,5.00,0.00,22.2,21.1,00.0,31.1,24.0,15.8,0000.0,0001.38,0000.95,0000.76
2023-01-10 14:11:00,,0817.5,4.99,0.00,22.2,21.1,00.0,31.1,24.0,15.6,0000.0,0001.39,0000.93,0000.76
2023-01-10 14:12:00,,0817.5,5.01,0.00,22.2,21.1,00.0,31.1,24.0,15.5,0000.0,0001.65,0000.97,0000.76
2023-01-10 14:13:00,,0817.5,5.00,0.00,22.2,21.1,00.0,31.1,24.0,15.6,0000.0,0001.86,0001.01,0000.76
2023-01-10 14:14:00,,0817.6,5.01,0.00,22.2,21.1,00.0,31.1,24.0,15.6,0000.0,0001.81,0000.99,0000.76
2023-01-10 14:15:00,,0817.6,5.00,0.00,22.3,21.1,00.0,31.1,24.1,15.6,0000.0,0001.87,0001.02,0000.78
2023-01-10 14:16:00,,0817.7,4.99,0.00,22.3,21.1,00.0,31.1,24.1,15.5,0000.0,0002.02,0001.08,0000.79
2023-01-10 14:17:00,,0817.7,4.99,0.00,22.3,21.1,00.0,31.1,24.1,15.5,0000.0,0002.24,0001.12,0000.79
2023-01-10 14:18:00,,0817.6,4.99,0.00,22.3,21.1,00.0,31.1,24.1,15.4,0000.0,0002.49,0001.16,0000.80
2023-01-10 14:19:00,,0817.6,4.99,0.00,22.3,21.1,00.0,31.1,24.1,15.4,0000.0,0002.58,0001.17,0000.80
2023-01-10 14:20:00,,0817.5,5.00,0.00,22.3,21.1,00.0,31.1,24.1,15.5,0000.0,0002.66,0001.17,0000.80
2023-01-10 14:21:00,,0817.5,5.00,0.00,22.3,21.1,00.0,31.1,24.1,15.5,0000.0,0003.19,0001.19,0000.79
2023-01-10 14:22:00,,0817.6,4.99,0.00,22.3,21.2,00.0,31.1,24.1,15.6,0000.0,0003.21,0001.20,0000.79
2023-01-10 14:23:00,,0817.6,5.01,0.00,22.3,21.2,00.0,31.1,24.1,15.6,0000.0,0002.95,0001.17,0000.79
2023-01-10 14:24:00,,0817.6,5.00,0.00,22.3,21.2,00.0,31.1,24.2,15.6,0000.0,0002.78,0001.15,0000.78
2023-01-10 14:25:00,,0817.6,5.00,0.00,22.3,21.2,00.0,31.1,24.2,15.6,0000.0,0002.77,0001.14,0000.78
2023-01-10 14:26:00,,0817.5,4.99,0.00,22.3,21.2,00.0,31.1,24.1,15.4,0000.0,0002.92,0001.15,0000.77
2023-01-10 14:27:00,,0817.5,4.99,0.00,22.3,21.1,00.0,31.2,24.1,15.1,0000.0,0003.06,0001.11,0000.76
2023-01-10 14:28:00,,0817.6,5.01,0.00,22.3,21.2,00.0,31.2,24.2,14.9,0000.0,0002.85,0001.08,0000.76
2023-01-10 14:29:00,,0817.6,4.99,0.00,22.3,21.2,00.0,31.2,24.2,14.8,0000.0,0002.62,0001.04,0000.75
2023-01-10 14:30:00,,0817.5,5.01,0.00,22.4,21.2,00.0,31.2,24.2,14.7,0000.0,0002.52,0001.03,0000.75
2023-01-10 14:31:00,,0817.6,5.00,0.00,22.4,21.2,00.0,31.2,24.2,14.6,0000.0,0002.45,0001.01,0000.75
2023-01-10 14:32:00,,0817.6,4.99,0.00,22.4,21.2,00.0,31.2,24.2,14.5,0000.0,0001.99,0001.03,0000.76
2023-01-10 14:33:00,,0817.7,4.99,0.00,22.4,21.2,00.0,31.2,24.2,14.5,0000.0,0002.00,0001.04,0000.77
2023-01-10 14:34:00,,0817.6,5.00,0.00,22.4,21.1,00.0,31.2,24.2,14.6,0000.0,0002.04,0001.06,0000.79
2023-01-10 14:35:00,,0817.7,4.99,0.00,22.4,21.1,00.0,31.2,24.2,14.6,0000.0,0002.11,0001.09,0000.80
2023-01-10 14:36:00,,0817.6,4.99,0.00,22.4,21.1,00.0,31.2,24.2,14.6,0000.0,0002.21,0001.14,0000.81
2023-01-10 14:37:00,,0817.7,5.01,0.00,22.4,21.1,00.0,31.2,24.1,14.8,0000.0,0002.17,0001.14,0000.82
2023-01-10 14:38:00,,0817.8,5.01,0.00,22.4,21.1,00.0,31.2,24.1,14.8,0000.0,0001.98,0001.15,0000.83
2023-01-10 14:39:00,,0817.8,5.00,0.00,22.4,21.1,00.0,31.2,24.1,15.1,0000.0,0002.58,0001.16,0000.83
2023-01-10 14:40:00,,0817.8,5.01,0.00,22.3,21.1,00.0,31.2,24.1,15.3,0000.0,0002.61,0001.15,0000.83
2023-01-10 14:41:00,,0817.8,4.99,0.00,22.3,21.1,00.0,31.2,24.1,15.0,0000.0,0002.66,0001.16,0000.82
2023-01-10 14:42:00,,0817.7,4.99,0.00,22.3,21.1,00.0,31.2,24.1,14.8,0000.0,0002.91,0001.19,0000.81
2023-01-10 14:43:00,,0817.7,5.01,0.00,22.3,21.1,00.0,31.2,24.1,14.6,0000.0,0002.96,0001.19,0000.81
2023-01-10 14:44:00,,0817.6,5.01,0.00,22.3,21.1,00.0,31.2,24.1,14.6,0000.0,0002.92,0001.18,0000.80
2023-01-10 14:45:00,,0817.6,5.00,0.00,22.3,21.1,00.0,31.2,24.1,14.5,0000.0,0003.22,0001.23,0000.79
2023-01-10 14:46:00,,0817.6,5.00,0.00,22.3,21.1,00.0,31.2,24.1,14.4,0000.0,0003.22,0001.20,0000.79
2023-01-10 14:47:00,,0817.5,4.99,0.00,22.3,21.1,00.0,31.2,24.1,14.4,0000.0,0003.20,0001.18,0000.78
2023-01-10 14:48:00,,0817.5,5.00,0.00,22.3,21.1,00.0,31.2,24.2,14.5,0000.0,0003.13,0001.16,0000.77
2023-01-10 14:49:00,,0817.5,5.01,0.00,22.4,21.1,00.0,31.2,24.2,14.5,0000.0,0002.95,0001.12,0000.76
2023-01-10 14:50:00,,0817.4,5.01,0.00,22.4,21.1,00.0,31.2,24.2,14.5,0000.0,0002.47,0001.11,0000.76
2023-01-10 14:51:00,,0817.5,5.01,0.00,22.4,21.1,00.0,31.2,24.2,14.5,0000.0,0003.07,0001.14,0000.76
2023-01-10 14:52:00,,0817.5,5.00,0.00,22.4,21.1,00.0,31.2,24.2,14.4,0000.0,0003.11,0001.16,0000.78
2023-01-10 14:53:00,,0817.5,5.00,0.00,22.4,21.1,00.0,31.2,24.2,14.3,0000.0,0002.87,0001.13,0000.78
2023-01-10 14:54:00,,0817.6,5.01,0.00,22.4,21.1,00.0,31.2,24.2,14.3,0000.0,0002.76,0001.13,0000.79
2023-01-10 14:55:00,,0817.6,4.99,0.00,22.4,21.1,00.0,31.2,24.2,14.3,0000.0,0003.05,0001.12,0000.79
2023-01-10 14:56:00,,0817.7,5.00,0.00,22.4,21.1,00.0,31.2,24.2,14.4,0000.0,0002.89,0001.07,0000.79
2023-01-10 14:57:00,,0817.6,5.00,0.00,22.4,21.1,00.0,31.2,24.2,14.3,0000.0,0002.79,0001.06,0000.79
2023-01-10 14:58:00,,0817.5,4.99,0.00,22.4,21.1,00.0,31.2,24.2,14.3,0000.0,0002.71,0001.06,0000.80
2023-01-10 14:59:00,,0817.5,5.00,0.00,22.4,21.1,00.0,31.2,24.2,14.3,0000.0,0002.77,0001.07,0000.79
